Погода в Кыштовке

Погода в Кыштовке : погода сейчас, прогноз погоды и архив. Всё, что Вы хотите узнать о погоде в Кыштовке!

Хотите узнать прогноз погоды в Кыштовке? Тогда Вам сюда: Погода в Кыштовке

Поиск расширенной информации на нашем сайте:

Другие новости

Новости СМИ2

Главная страница сайта

Новости сайта

03.07.2017

Напоминаем, что на нашем специализированном сайте Метеоцентр.Азия вы можете получить высокодетализированные автоматические прогнозы погоды по пунктам России, СНГ и мира в авиационном формате (включающие направление и скорость ветра, видимость, явления погоды, количество и форму облачности, нижнюю и верхнюю границу облачности).


Погода в Кыштовке - сегодня

Время (UTC), дата Ветер
(°,м/с) 
Видим.   Явления Облачность Т
(°С)
Тd
(°С)
f(%) Тe
(°С)
Pmin
(гПа)
dP
(гПа)
Po
(мм)
O2
(г/м3)
Тmin Tmax R s Состояние
почвы
12 19.05.18 330 (СЗ) 5{10}  10 км    3/0 верхняя 
[Ci fib]
+8.9 -9 27 +7  1024.6  0.8  758  297    +8.9       
15 19.05.18 360 (С) 10 км    ясно 
+5.7 -8.2 36 +7  1025.4  0.7  758  300           
18 19.05.18 тихо ()   10 км    ясно 
-2.4 -8 65 -2  1026.8  0.9  759  309           
21 19.05.18 тихо ()   10 км    3/0 верхняя 
[Ci fib]
-3.2 -7.2 74 -3  1026.9  0.1  759  310           
00 20.05.18 160 (Ю) 10 км    6/0 верхняя 
[Ci fib]
-0.3 -4.4 74 1026.3  -0.4  759  307  -5        замёрзшая 
03 20.05.18 200 (Ю) 10 км    10/0 верхняя 
[Ci fib]
+10.4 -7.7 27 +10  1024.6  -1.2  758  295           
09 20.05.18 200 (Ю) 4{13}  10 км    10/4 600 м кучево-дожд., средняя 
[Cb calv|As trans]
+11.5 +1.1 49 +11  1020.7  -1.9  755  292           
12 20.05.18 180 (Ю) 3{11}  4000 м  слаб. ливневой дождь  10/8 600 м кучево-дожд., средняя 
[Cb calv|As trans]
+8.8 +5 77 +8  1019.4  -1.5  754  293    +13.4  0.3     
15 20.05.18 160 (Ю) 10 км  {ливн. осадки}  10/0 средняя, верхняя 
[Ac trans|Ci fib]
+8.7 +4.2 73 +8  1016.1  -3.3  751  293           
18 20.05.18 170 (Ю) 10 км  {ливн. осадки}  8/0 средняя, верхняя 
[Ac trans|Ci fib]
+8.3 +2.6 67 +7  1013.5  -2.5  750  293           
21 20.05.18 160 (Ю) 10 км    10/4 600 м средняя, верхняя 
[Sc|Ac trans|Ci fib]
+8.1 +2.2 66 +8  1010.8  -2.7  748  292           
00 21.05.18 180 (Ю) 10 км    10/3 600 м кучево-дожд., средняя, верхняя 
[Cb calv|Ac trans|Ci fib]
+10.1 +3.4 63 +10  1009.2  -1.5  746  289  +7.8        влажная 
03 21.05.18 210 (ЮЗ) 10 км    10/5 600 м кучево-дожд., средняя 
[Cb calv|Ac trans]
+17.7 +6.4 47 +18  1007.4  -1.4  745  281           
12 21.05.18 300 (СЗ) 6-12{13}  10 км  {ливн. осадки}  6/3 600 м кучево-дожд., средняя 
[Cb calv|Ac trans]
+20.7 +10.7 53 +23  1009.1  1.3  747  278    +25.1  0.0     
15 21.05.18 330 (СЗ) 7-11{13}  10 км    4/4 1000 м 
[Sc]
+15 +6.6 57 +14  1011.1  1.6  748  285           
18 21.05.18 330 (СЗ) 4{11}  10 км    1/1 1000 м 
[Sc]
+7.3 +3.1 75 +6  1013.7  2.2  750  294           
21 21.05.18 310 (СЗ) 10 км    10/10 660 м кучево-дожд. 
[Cb calv]
+6.2 +2.2 76 +5  1014  0.2  750  295           
00 22.05.18 320 (СЗ) 10 км    10/10 540 м кучево-дожд. 
[Cb calv]
+5.5 +1.5 75 +4  1013.2  -0.7  749  296  +5.5        сухая 
03 22.05.18 310 (СЗ) 4{11}  10 км    10/9 600 м кучево-дожд., средняя 
[Cb calv|Ac trans]
+6.2 +1.3 71 +5  1012.2  -1  749  295           
06 22.05.18 280 (З) 4{11}  10 км    6/6 600 м 
[Cu hum]
+10.2 -1.8 43 +9  1009.6  -2.4  747  290           
09 22.05.18 280 (З) 10 км    3/0 верхняя 
[Ci fib]
+14.4 -4.3 27 +14  1006.5  -2.9  745  285           
12 22.05.18 290 (З) 4{10}  10 км    4/0 верхняя 
[Ci fib]
+15.5 -5.2 24 +15  1003.6  -2.8  742  284    +15.9       
15 22.05.18 260 (З) 10 км    10/8 600 м кучево-дожд., средняя 
[Cb calv|Ac trans]
+12.7 -3.7 32 +13  1002.4  -1.2  742  286           
18 22.05.18 310 (СЗ) 10 км    8/6 600 м кучево-дожд., средняя, верхняя 
[Cb calv|Ac trans|Ci fib]
+9.8 +0.1 51 +10  1001  -1.6  740  288           
00 23.05.18 350 (С) 10-15{15}  4000 м  слаб. ливневой дождь  10/10 570 м кучево-дожд. 
[Cb calv]
+2.3 +0 85 -2  1004.1  2.7  742  297  +2.3      влажная 
Время (UTC), дата Ветер
(°,м/с) 
Видим.   Явления Облачность Т
(°С)
Тd
(°С)
f(%) Тe
(°С)
Pmin
(гПа)
dP
(гПа)
Po
(мм)
O2
(г/м3)
Тmin Tmax R s Состояние
почвы

Для получения пояснительной информации подведите курсор к названию столбца.

ПОГОДА в Кыштовке - архив

Всё, что Вы хотите узнать о погоде в Кыштовке - удобно и подробно!

Выберите нужную дату (начиная с 1 января 2015* года) и нажмите кнопку "Найти".
Будут отображены архивные сводки погоды по пункту Кыштовка, начиная с указанной даты.


Отображать данные в формате CSV (для использования в таблицах Excel)


Внимание! Наш архив погоды предназначен исключительно для личного некоммерческого использования в познавательных целях. Если Вам необходимы официальные справки о состоянии погоды (для производственных, юридических, коммерческих и т.п. целей), обращайтесь в органы Росгидромета.

*Примечание: данная дата относится к архиву по метеостанциям СССР (Россия, СНГ, Балтия).
Архив по метеостанциям Зарубежной Европы и Азии (кроме Китая) хранится 10 дней, по другим регионам земного шара (Китай, Африка, Америка, Австралия, Океания) - 1 день.

Кыштовка - район местоположения метеостанции


Название, широта, долгота, высота метеостанции:
Кыштовка 56.6°ш. 76.9°д. 116 м над ур. моря [Российская Федерация]

Дополнительная информация

В oтличие oт бoльшинства пoгoдных сайтoв мы публикуем пoдрoбную метеoинфoрмацию в детальнoм прoфессиoнальнoм фoрмате.

Характеристики температуры и влажнoсти вoздуха измеряются на высoте 2 м в тени вдали oт зданий и деревьев.
Скoрoсть ветра измеряется на высoте 10 м (на урoвне рoста челoвека скoрoсть ветра ниже в 1.5-2 раза). Если метеoстанция нахoдится в гoрoде или в лесу, тo скoрoсть ветра занижена на 2-4 м/с пo сравнению с oткрытым местoм. Скoрoсть ветра над акватoриями крупных рек и oзёр, а также на вершинах хoлмoв на 2-5 м/с выше, чем в oбычных услoвиях.
Атмoсфернoе давление в разных тoчках местнoсти мoжет значительнo oтличаться oт давления на метеoстанции, в зависимoсти oт услoвий рельефа (при пoдъёме на 10 м давление пoнижается примернo на 1 мм рт.ст.).